STARLINK-11546, 62835

Orbit data source: Space-Track

STARLINK-11546, 62835 is a payload satellite owned by SpaceX/Seattle (US) in LEO that was launched on Mon, 27 Jan 2025 UTC via an FALCON 9 launch vehicle from the Air Force Eastern Test Range (AFETR). Payload-class satellites include a variety of spacecraft equipped with specific instruments for various scientific and technological missions. These include communications satellites like Starlink; space stations such as the ISS; scientific satellites like the Hubble; Earth observation satellites from companies like Planet Labs, Umbra, and HawkEye 360; GPS; miniature CubeSats for education and research; and military/defense satellites.

Loading next visibility...
Identifier
62835, 2025-019G
Orbit
LEO
Last TLE update
10 hours ago
Origin
Manufacturer
SpaceX/Seattle
Mission
Operational Commercial Communications
Bus & Motor
STARLINK V2M, Unknown motor
Mass
730 kg wet, ~700 kg dry
Launch date (UTC)
2025-01-27 (3 months ago)
Launch vehicle
FALCON 9
Launch site
Air Force Eastern Test Range (AFETR)
Object type
Payload
Rocket body
Debris
Shape & HBR
Box + 2 Pan, 29 m
Radar Cross Section
36.964 m², Large (>1 m²)

Expand to show TLE details & history

TLE from 10 hours ago
0 STARLINK-11546
1 62835U 25019G   25128.80096605 -.00000464  00000-0 -13071-6 0  9997
2 62835  42.9999 344.2939 0000918 274.6717  85.4046 15.70821361 15922
Epoch: 2025-05-08T19:13Z
Definitive object data (Epoch: 2025-05-08T19:13:23.466Z)
Latitude
-0.00001°
Longitude
-170.92014°
Altitude
356.27 km
Speed
7.697 km/s
True Right ascension
22h 57m 10s
True Declination
0° 00' 00"
Sunlit
Object was in daylight at TLE epoch
Visualization TLE readout
Latitude
-11.53427°
Longitude
19.13866°
Altitude
358.425 km
Speed
7.695 km/s
Apparent Right ascension
08h 40m 05s
Apparent Declination
-60° 23' 38"
Sunlit
Object is in full shadow
Visualization observer readout
Local Sidereal Time
13:21:26
Azimuth
211.025° SW
Elevation
-25.493°
Doppler factor
1
Orbital elements
Apogee altitude
359.148 km
Perigee altitude
357.911 km
Semi-major axis
6,736.667 km
Eccentricity
0.0000918
Inclination
42.9999°
RAAN
344.2939°
Arg. of periapsis
274.6717°
True anomaly
85.41509°
Mean anomaly
85.4046°
Eccentric anomaly
85.40984°
Mean motion
3.92532 °/min
BSTAR
-1.3071e-7
Orbital period
91.71 mins
Loading maneuver chart data...
Loading SW <> Apogee altitude chart data...
Loading historical data...
Loading historical data...
Loading historical data...
Loading historical data...
Loading historical data...
Loading historical data...
Loading historical data...

STARLINK-11546 Visibility forecast

Observer location: undefined°, undefined°

Span
Click to sort rows by Start time (UTC) header in descending order
Start Az.
Max El. time (UTC)
Max El. Az.
Max El.
End time (UTC)
End Az.
4 mins2025-05-09 18:22:48.259Z238.545° WSW2025-05-09 18:23:48.259Z196.799° SSW43.44°2025-05-09 18:26:48.259Z73.973° E
4 mins2025-05-09 19:58:48.259Z296.091° NW2025-05-09 19:59:48.259Z330.355° NNW33.301°2025-05-09 20:02:48.259Z69.624° E
4 mins2025-05-09 21:34:48.259Z296.169° NW2025-05-09 21:36:48.259Z49.354° ENE40.595°2025-05-09 21:38:48.259Z94.416° ESE
|